Tracking 25372 objects as of 23-Jan-2022
HD Live streaming from Space Station
objects crossing your sky now

STARLINK-2370

Track STARLINK-2370 now!
10-day predictions
STARLINK-2370 is classified as:


NORAD ID: 47910
Int'l Code: 2021-021BC
Perigee: 552.7 km
Apogee: 556.0 km
Inclination: 53.1 °
Period: 95.6 minutes
Semi major axis: 6925 km
RCS: Unknown
Launch date: March 14, 2021
Source: United States (US)
Launch site: AIR FORCE EASTERN TEST RANGE (AFETR)
aabbcc
Your satellite tracking list
Your tracking list is empty




NASA's NSSDC Master Catalog

Two Line Element Set (TLE):
1 47910U 21021BC  22022.22256653  .00001763  00000-0  13722-3 0  9991
2 47910  53.0545 198.8932 0002432  81.5707 278.5558 15.06404249 48999
Source of the keplerian elements: AFSPC